Showing default

JASON 3, 41240

Orbit data source: Space-Track

JASON 3, 41240 is an American payload satellite in LEO that was launched on Sun, 17 Jan 2016 UTC via an FALCON 9 launch vehicle from the Air Force Western Test Range (AFWTR). Payload-class satellites include a variety of spacecraft equipped with specific instruments for various scientific and technological missions. These include communications satellites like Starlink; space stations such as the ISS; scientific satellites like the Hubble; Earth observation satellites from companies like Planet Labs, Umbra, and HawkEye 360; GPS; miniature CubeSats for education and research; and military/defense satellites.

Loading next visibility...
Identifier
41240, 2016-002A
Orbit
LEO
Country
Flag of USUS
Related business
Manufacturer
Thales Alenia
Mission
Partially operational Civil Sci/Met
Bus & Motor
PROTEUS, AOCS
Mass
553 kg wet, 525 kg dry
Launch date (UTC)
2016-01-17 (10 years ago)
Launch vehicle
FALCON 9
Launch site
Air Force Western Test Range (AFWTR)
Object type
Payload
Rocket body
Debris
Shape & HBR
Box + 2 Pan, 15.7 m
Radar Cross Section
12.823 m², Large (>1 m²)

Expand to show TLE details & history
Last TLE update: 2 days ago

TLE from 2 days ago
0 JASON 3
1 41240U 16002A   26171.42010391 -.00000038  00000-0  96061-4 0  9995
2 41240  66.0406 119.0381 0008478 272.6497  87.3551 12.87628140487661
Epoch: 2026-06-20T10:04Z
TLE epoch observation values (Epoch: 2026-06-20T10:04:56.977Z)
Latitude
-0.00006°
Longitude
59.16568°
Altitude
1,312.573 km
Speed
7.201 km/s
True Right ascension
07h 56m 09s
True Declination
0° 00' 00"
Sunlit
Object was in daylight at epoch
Visualization orbit readout
Latitude
Unknown
Longitude
Unknown
Altitude
Unknown
Speed
Unknown
Apparent Right ascension
Unknown
Apparent Declination
Unknown
Sunlit
N/A
Visualization observer readout
Local Sidereal Time
21:35:08
Azimuth
Unknown
Elevation
Unknown
Doppler factor
Unknown
Orbital elements
Apogee altitude
1,316.027 km
Perigee altitude
1,302.992 km
Semi-major axis
7,687.647 km
Eccentricity
0.00085
Inclination
66.0406°
RAAN
119.0381°
Arg. of periapsis
272.6497°
True anomaly
87.45215°
Mean anomaly
87.3551°
Eccentric anomaly
87.40363°
Mean motion
3.21998 °/min
Orbital period
111.8 mins
BSTAR
0.000096061
Loading maneuver chart data...
Computing Atmospheric mass density...
Loading historical data...
Loading historical data...
Loading historical data...
Loading historical data...
Loading historical data...
Loading historical data...
Loading historical data...
Other satellites on launch #2 in the year 2016 (2016-01-17 UTC)

Documentation

Showing up to 5 results
|